TimeCDT,TemperatureF,Dew PointF,Humidity,Sea Level PressureIn,VisibilityMPH,Wind Direction,Wind SpeedMPH,Gust SpeedMPH,PrecipitationIn,Events,Conditions,WindDirDegrees,DateUTC
12:06 AM,39.2,35.6,87,30.18,10.0,NNW,21.9,34.5,0.00,Rain,Light Rain,330,2012-10-04 05:06:00
12:23 AM,39.2,33.8,81,30.17,10.0,NNW,19.6,40.3,0.00,Rain,Light Rain,340,2012-10-04 05:23:00
12:53 AM,39.0,34.0,82,30.19,10.0,NNW,18.4,28.8,0.00,,Overcast,330,2012-10-04 05:53:00
1:53 AM,41.0,34.0,76,30.22,10.0,NNW,23.0,28.8,N/A,,Overcast,330,2012-10-04 06:53:00
2:53 AM,39.9,34.0,79,30.23,10.0,NW,21.9,28.8,N/A,,Overcast,320,2012-10-04 07:53:00
3:53 AM,39.0,32.0,76,30.25,10.0,NW,19.6,29.9,N/A,,Overcast,320,2012-10-04 08:53:00
4:53 AM,39.0,32.0,76,30.27,10.0,NNW,20.7,-,N/A,,Overcast,330,2012-10-04 09:53:00
5:53 AM,39.0,32.0,76,30.28,10.0,NNW,21.9,26.5,N/A,,Overcast,330,2012-10-04 10:53:00
6:53 AM,37.9,30.9,76,30.30,10.0,NNW,18.4,25.3,N/A,,Overcast,340,2012-10-04 11:53:00
7:53 AM,39.0,30.9,73,30.32,10.0,NNW,19.6,25.3,N/A,,Overcast,340,2012-10-04 12:53:00
8:53 AM,39.9,30.9,70,30.34,10.0,NW,18.4,23.0,N/A,,Overcast,320,2012-10-04 13:53:00
9:29 AM,41.0,30.2,65,30.30,10.0,NNW,19.6,29.9,N/A,,Overcast,340,2012-10-04 14:29:00
9:46 AM,39.2,33.8,81,30.32,10.0,NNW,17.3,25.3,0.00,Rain,Light Rain,340,2012-10-04 14:46:00
9:53 AM,39.0,33.1,79,30.36,10.0,NNW,19.6,24.2,0.00,Rain,Light Rain,330,2012-10-04 14:53:00
10:03 AM,39.2,33.8,81,30.32,10.0,NNW,15.0,-,0.00,Rain,Light Rain,330,2012-10-04 15:03:00
10:53 AM,43.0,34.0,71,30.36,10.0,NW,20.7,29.9,0.00,,Overcast,320,2012-10-04 15:53:00
11:12 AM,41.0,32.0,70,30.33,10.0,NNW,18.4,28.8,N/A,,Overcast,330,2012-10-04 16:12:00
11:26 AM,44.6,30.2,57,30.33,10.0,NW,25.3,29.9,N/A,,Overcast,310,2012-10-04 16:26:00
11:53 AM,44.1,30.0,58,30.36,10.0,NNW,27.6,33.4,N/A,,Overcast,330,2012-10-04 16:53:00
12:53 PM,44.1,30.9,60,30.37,10.0,NNW,24.2,28.8,N/A,,Overcast,330,2012-10-04 17:53:00
1:19 PM,44.6,30.2,57,30.33,10.0,NNW,20.7,28.8,N/A,,Overcast,330,2012-10-04 18:19:00
1:33 PM,44.6,28.4,53,30.33,10.0,NW,23.0,29.9,N/A,,Overcast,320,2012-10-04 18:33:00
1:53 PM,45.0,28.9,53,30.36,10.0,NW,24.2,29.9,N/A,,Overcast,310,2012-10-04 18:53:00
2:53 PM,46.0,28.0,50,30.35,10.0,NNW,21.9,28.8,N/A,,Mostly Cloudy,340,2012-10-04 19:53:00
3:53 PM,48.0,26.1,42,30.33,10.0,NW,21.9,27.6,N/A,,Clear,320,2012-10-04 20:53:00
5:53 PM,46.0,24.1,42,30.34,10.0,NNW,18.4,23.0,N/A,,Clear,340,2012-10-04 22:53:00
6:53 PM,43.0,25.0,49,30.35,10.0,NNW,15.0,-,N/A,,Clear,340,2012-10-04 23:53:00
7:53 PM,39.0,24.1,55,30.38,10.0,North,9.2,-,N/A,,Partly Cloudy,350,2012-10-05 00:53:00
8:53 PM,37.9,24.1,57,30.38,10.0,North,12.7,-,N/A,,Clear,350,2012-10-05 01:53:00
9:53 PM,37.0,24.1,59,30.39,10.0,NNW,8.1,-,N/A,,Clear,340,2012-10-05 02:53:00
10:53 PM,32.0,21.9,66,30.40,10.0,NW,6.9,-,N/A,,Clear,320,2012-10-05 03:53:00
11:53 PM,33.1,24.1,70,30.40,10.0,NNW,8.1,-,N/A,,Clear,330,2012-10-05 04:53:00